Location: Godiavel Galaoual
(15.2485°N, 12.6604°W)
Time: 20:58:18
(UTC+00:00)

BEESAT - Pass Details

Date: 29 July 2021
Orbit: 699 x 708 km, 98.6° (Epoch: 25 September)

Event Time Altitude Azimuth Distance (km) Brightness Sun altitude
Rises 20:49:57 0° 349° (N) 3,095 ? -20.4°
Reaches altitude 10° 20:52:42 10° 333° (NNW) 2,176 ? -21.0°
Maximum altitude 20:56:11 20° 286° (WNW) 1,583 ? -21.7°
Drops below altitude 10° 20:59:39 10° 239° (WSW) 2,173 ? -22.5°
Sets 21:02:25 0° 223° (SW) 3,089 ? -23.1°
